Lockhart, AL

10:18 AM CST on February 09, 2016 (GMT -0600)
Florala

Weather History for K0J4 - May, 2014

Change the Weather History Date:

Sunday, May 11, 2014

  Actual Average (KCEW) Record (KCEW)
Temperature  
Mean Temperature 78 °F -  
Max Temperature 86 °F 83 °F 96 °F (2011)
Min Temperature 70 °F 55 °F 45 °F (1990)
Cooling Degree Days 14    
Growing Degree Days 28 (Base 50)    
Moisture  
Dew Point 70 °F    
Average Humidity 81    
Maximum Humidity 96    
Minimum Humidity 48    
Precipitation  
Precipitation 0.00 in - - ()
Sea Level Pressure  
Sea Level Pressure 30.10 in    
Wind  
Wind Speed 4 mph (SE)    
Max Wind Speed 10 mph    
Max Gust Speed -    
Visibility 7 miles    
Events      
Averages and records for this station are not official NWS values.
T = Trace of Precipitation, MM = Missing Value Source: NWS Daily Summary

Daily Weather History Graph

Daily Weather History Graph

Search for Another Location

Airport or City:

Trip Planner

Search our weather history database for the weather conditions in past years. The results will help you decide how hot, cold, wet, or windy it might be!

Date:

Astronomy

May. 11, 2014 Rise Set
Actual Time 5:52 AM CDT 7:31 PM CDT
Civil Twilight 5:26 AM CDT 7:57 PM CDT
Nautical Twilight 4:54 AM CDT 8:29 PM CDT
Astronomical Twilight 4:21 AM CDT 9:02 PM CDT
Moon 4:38 PM CDT (5/11) 3:43 AM CDT (5/11)
Length of Visible Light 14h 31m
Length of Day
13h 38m
Waxing Gibbous, 89% of the Moon is Illuminated
May 11
Waxing Gibbous
May 14
Full
May 21
Last Quarter
May 28
New
Jun 5
First Quarter

Hourly Weather History & Observations

Time (CDT) Temp. Heat Index Dew Point Humidity Pressure Visibility Wind Dir Wind Speed Gust Speed Precip Events Conditions
12:19 AM 73.4 °F - 71.6 °F 94% 30.08 in 1.2 mi SSE 3.5 mph - N/A   Overcast
12:28 AM 73.4 °F - 71.6 °F 94% 30.08 in 2.0 mi SSE 3.5 mph - N/A   Overcast
12:58 AM 73.0 °F - 72.0 °F 96% 30.07 in 2.5 mi SSE 3.5 mph - N/A   Overcast
1:04 AM 73.4 °F - 71.6 °F 94% 30.08 in 3.0 mi SSE 3.5 mph - N/A   Overcast
1:27 AM 73.4 °F - 71.6 °F 94% 30.08 in 2.5 mi South 4.6 mph - N/A   Overcast
1:43 AM 73.4 °F - 71.6 °F 94% 30.07 in 3.0 mi SSE 3.5 mph - N/A   Overcast
1:58 AM 73.0 °F - 72.0 °F 96% 30.06 in 3.0 mi SSE 3.5 mph - N/A   Overcast
2:58 AM 73.0 °F - 72.0 °F 96% 30.06 in 4.0 mi SSE 3.5 mph - N/A   Overcast
3:58 AM 73.0 °F - 72.0 °F 96% 30.06 in 3.0 mi Calm Calm - N/A   Overcast
4:50 AM 73.4 °F - 71.6 °F 94% 30.07 in 2.5 mi Calm Calm - N/A   Overcast
4:58 AM 73.0 °F - 71.1 °F 93% 30.06 in 1.8 mi Calm Calm - N/A   Overcast
5:19 AM 73.4 °F - 71.6 °F 94% 30.08 in 2.0 mi Calm Calm - N/A   Overcast
5:39 AM 73.4 °F - 71.6 °F 94% 30.08 in 3.0 mi Calm Calm - N/A   Overcast
5:58 AM 73.0 °F - 71.1 °F 93% 30.08 in 3.0 mi Calm Calm - N/A   Overcast
6:06 AM 73.4 °F - 71.6 °F 94% 30.09 in 2.5 mi Calm Calm - N/A   Overcast
6:42 AM 73.4 °F - 71.6 °F 94% 30.10 in 2.5 mi ENE 3.5 mph - N/A   Overcast
6:58 AM 73.9 °F - 72.0 °F 93% 30.10 in 3.0 mi ENE 4.6 mph - N/A   Overcast
7:06 AM 73.4 °F - 71.6 °F 94% 30.11 in 3.0 mi East 4.6 mph - N/A   Overcast
7:57 AM 73.9 °F - 71.1 °F 91% 30.11 in 7.0 mi East 4.6 mph - N/A   Overcast
8:03 AM 73.4 °F - 71.6 °F 94% 30.13 in 7.0 mi ESE 4.6 mph - N/A   Overcast
8:39 AM 75.2 °F - 71.6 °F 89% 30.14 in 10.0 mi East 4.6 mph - N/A   Overcast
8:58 AM 75.0 °F - 71.1 °F 87% 30.14 in 9.0 mi East 5.8 mph - N/A   Overcast
9:36 AM 77.0 °F - 71.6 °F 83% 30.16 in 10.0 mi Variable 4.6 mph - N/A   Overcast
9:46 AM 75.2 °F - 71.6 °F 89% 30.16 in 10.0 mi Variable 4.6 mph - N/A   Overcast
9:58 AM 78.1 °F - 71.1 °F 79% 30.15 in 10.0 mi ESE 6.9 mph - N/A   Mostly Cloudy
10:17 AM 78.8 °F - 71.6 °F 78% 30.16 in 10.0 mi ESE 5.8 mph - N/A   Mostly Cloudy
10:29 AM 78.8 °F - 71.6 °F 78% 30.16 in 10.0 mi ESE 6.9 mph - N/A   Mostly Cloudy
10:42 AM 80.6 °F 84.6 °F 71.6 °F 74% 30.16 in 10.0 mi SSE 5.8 mph - N/A   Mostly Cloudy
10:46 AM 80.6 °F 83.9 °F 69.8 °F 70% 30.16 in 10.0 mi ESE 5.8 mph - N/A   Mostly Cloudy
10:58 AM 81.0 °F 84.9 °F 71.1 °F 72% 30.14 in 10.0 mi Variable 4.6 mph - N/A   Partly Cloudy
11:41 AM 80.6 °F 84.6 °F 71.6 °F 74% 30.15 in 10.0 mi Variable 3.5 mph - N/A   Mostly Cloudy
11:49 AM 80.6 °F 83.9 °F 69.8 °F 70% 30.14 in 10.0 mi SSW 4.6 mph - N/A   Mostly Cloudy
11:58 AM 82.9 °F 86.5 °F 69.1 °F 63% 30.13 in 10.0 mi SSE 5.8 mph - N/A   Mostly Cloudy
12:58 PM 84.9 °F 87.6 °F 66.9 °F 55% 30.11 in 10.0 mi South 10.4 mph - N/A   Partly Cloudy
1:58 PM 86.0 °F 88.2 °F 66.0 °F 51% 30.09 in 10.0 mi SE 9.2 mph - N/A   Scattered Clouds
2:58 PM 86.0 °F 88.2 °F 66.0 °F 51% 30.07 in 10.0 mi South 10.4 mph - N/A   Mostly Cloudy
3:58 PM 86.0 °F 87.6 °F 64.9 °F 49% 30.05 in 10.0 mi South 8.1 mph - N/A   Clear
4:58 PM 86.0 °F 87.3 °F 64.0 °F 48% 30.05 in 10.0 mi South 10.4 mph - N/A   Partly Cloudy
5:58 PM 84.0 °F 85.8 °F 64.9 °F 53% 30.05 in 10.0 mi South 10.4 mph - N/A   Partly Cloudy
6:58 PM 79.0 °F - 64.9 °F 62% 30.06 in 10.0 mi South 4.6 mph - N/A   Clear
7:53 PM 75.2 °F - 66.2 °F 73% 30.09 in 10.0 mi South 3.5 mph - N/A   Partly Cloudy
7:58 PM 75.9 °F - 64.9 °F 69% 30.08 in 10.0 mi South 3.5 mph - N/A   Partly Cloudy
8:58 PM 73.0 °F - 66.0 °F 79% 30.10 in 10.0 mi Calm Calm - N/A   Clear
9:58 PM 71.1 °F - 66.0 °F 84% 30.12 in 10.0 mi Calm Calm - N/A   Clear
10:58 PM 71.1 °F - 66.9 °F 87% 30.11 in 10.0 mi SE 3.5 mph - N/A   Clear
11:58 PM 70.0 °F - 68.0 °F 93% 30.09 in 7.0 mi SE 3.5 mph - N/A   Clear